sat.trackr.live / text

‹ back to catalog

ISTSAT-1

NORAD 60238 · 2024-128D

PAYLOAD ACTIVE UNKNOWN

§ Identity

Operator
Country
POR
Launch date
2024-07-09
Launch site
FRGUI
Launch vehicle
Mass (kg)
RCS (m²)

External: N2YO · Heavens-Above · Gunter

§ Orbital elements

Epoch: 2026-09-22T20:30:22.529088Z

Period
95.20 min
Inclination
61.9869°
Eccentricity
0.0024021
Mean motion
15.12617756 rev/d
Perigee alt
511.6 km
Apogee alt
544.8 km
Semi-major
6,906.4 km
B*
2.3851e-4
RAAN
220.5124°
Arg perigee
149.2040°
Mean anomaly
211.0471°
Rev number
12,123

§ Raw data

ISTSAT-11 60238U 24128D   26265.85442742  .00003989  00000+0  23851-3 0  99932 60238  61.9869 220.5124 0024021 149.2040 211.0471 15.12617756121231

JSON: /api/v1/satellites/60238 · /tle

For live sub-satellite position, see the globe view (requires WebGL).

§ Visibility from observer

Set your observer location to see the next 7 days of passes ≥ 10°. The values pass through the URL so the page stays shareable.

No JS? Fill the form by hand. The geolocation button needs JavaScript.

§ Radio — SatNOGS DB

ModeDescriptionDownlinkUplink
CW CW Beacon 145.895 MHz
AFSK Mode V - AFSK1k2 145.895 MHz

2 transmitters · refreshed weekly from db.satnogs.org